Wind_Speed
6 7 8 10 12 12 12 12 12 11 12 12 13 13 14 15 16 18 20 21 23 25 26 27 28 27 24 21 20 20 21 22 22 21 19 18 18 18 18 17 16 15 15 13 12 12 11 10 10 9 9 9 9 9 10 9 9 9 9 9 9 9 9 8 8 7 5 4 4 4 3 3 3 3 3 3 3 3 3 3 3 3 3 4 4
5 6 7 9 11 11 11 11 11 11 11 11 12 13 14 15 16 17 19 21 23 25 26 26 27 27 25 22 20 20 20 21 22 21 19 18 18 18 18 17 16 15 15 14 12 12 11 10 10 9 9 9 9 9 9 9 9 8 8 8 8 9 8 8 8 7 6 5 5 4 4 4 4 4 4 4 4 4 4 5 5 5 5 5 5
4 6 7 8 10 10 10 10 11 11 11 11 12 12 13 14 16 17 19 21 23 25 26 26 27 27 26 22 19 19 20 21 22 21 19 18 18 18 17 17 16 15 15 15 13 12 11 10 10 10 9 9 9 9 9 9 8 8 8 8 8 8 8 8 8 7 7 6 5 5 5 5 5 5 6 6 5 5 6 6 6 6 6 6 6
4 6 7 8 9 10 9 9 10 11 11 11 11 12 13 14 16 18 19 21 23 25 26 27 27 27 26 23 19 18 19 20 21 21 19 18 17 17 17 17 16 14 14 14 14 12 11 10 10 10 9 9 10 9 9 9 9 8 8 8 8 8 8 8 8 8 7 6 6 6 6 6 6 6 7 7 7 7 7 7 7 7 7 7 8
5 6 7 8 9 9 9 9 10 10 11 12 12 12 13 14 16 18 20 21 23 25 26 27 27 27 25 22 19 17 19 20 21 20 19 17 17 17 17 16 16 15 13 13 14 13 12 11 10 10 9 9 9 9 10 9 9 9 9 9 9 9 9 8 8 8 8 7 7 7 6 7 7 7 7 8 8 8 8 9 9 9 9 9 9
5 6 7 9 9 9 9 10 10 10 11 12 13 13 14 16 17 19 21 22 24 26 27 28 28 28 25 22 18 16 17 19 20 19 18 17 16 16 16 16 16 15 14 13 13 13 12 11 10 10 9 9 9 9 9 9 9 10 10 9 9 9 9 9 9 9 9 8 8 7 7 7 7 7 7 8 8 9 9 10 10 10 10 10 10
5 6 7 9 9 10 10 11 11 11 11 12 13 15 16 18 19 21 23 24 26 28 28 29 29 28 25 20 17 15 16 17 18 18 17 16 15 15 15 16 15 15 14 13 13 13 13 12 11 10 10 9 9 9 9 9 10 10 11 10 10 10 10 10 10 10 9 9 8 8 8 8 8 8 7 8 8 9 10 10 10 10 10 10 10
5 6 7 9 10 11 11 12 12 12 13 13 14 16 17 19 21 23 24 27 28 30 30 30 30 29 25 19 15 14 14 16 17 17 16 15 14 15 15 15 15 15 14 13 12 12 12 12 11 11 10 10 9 9 10 10 10 11 11 11 11 10 10 10 10 10 10 9 9 9 9 9 9 9 8 8 9 10 11 11 11 11 11 11 11
6 5 6 8 10 12 13 13 14 14 14 14 15 17 18 20 23 25 26 28 30 31 31 31 30 29 24 17 14 12 13 14 15 15 15 14 14 14 14 15 14 14 13 13 12 12 12 11 11 11 10 10 10 10 10 11 11 11 11 11 10 10 10 10 10 10 10 10 10 10 10 9 9 9 9 9 9 10 11 11 12 12 12 12 12
7 5 6 9 12 14 15 15 15 15 14 15 16 18 20 22 24 27 28 30 31 32 32 32 30 28 22 15 12 11 11 13 14 14 14 13 13 13 14 14 14 13 13 13 12 11 11 11 10 10 10 10 10 10 10 11 11 10 10 10 9 9 9 9 9 9 9 9 9 9 9 9 9 9 9 9 9 10 10 10 11 11 11 12 12
8 5 5 8 12 15 17 17 16 15 15 16 17 19 21 24 26 28 30 31 32 32 33 31 29 26 20 13 11 10 10 12 13 13 13 12 12 12 13 13 13 13 12 12 12 12 11 11 10 10 9 9 10 10 10 10 10 10 9 8 8 8 9 9 9 9 9 9 8 8 8 8 8 8 9 9 9 10 10 10 11 11 11 11 12
8 5 5 8 12 15 17 18 18 17 16 17 19 20 23 25 28 30 31 32 32 32 32 30 28 24 17 11 9 8 9 10 11 11 11 11 12 12 12 13 13 12 12 12 12 12 12 11 11 10 10 9 9 10 10 10 10 9 8 8 8 8 8 9 9 9 9 8 8 8 8 8 9 9 9 10 10 10 11 11 11 12 12 12 12
10 9 9 11 14 17 18 18 19 19 18 18 20 22 24 27 29 30 32 33 32 32 31 29 26 22 14 10 8 7 8 8 9 10 10 10 11 11 12 12 12 12 11 11 12 12 12 12 12 11 10 9 9 8 8 9 9 8 7 7 7 8 8 9 9 9 8 8 8 8 8 9 9 10 10 11 11 11 12 12 12 13 13 14 14
18 17 15 17 19 20 20 19 19 20 20 19 21 23 25 29 30 30 32 33 32 31 29 26 25 19 12 9 7 6 6 7 8 8 8 9 10 11 11 11 11 11 11 11 11 12 12 13 13 12 11 9 7 7 7 8 8 7 7 7 7 8 8 8 8 8 8 8 8 8 8 9 9 10 10 11 11 12 12 13 13 14 15 15 16
23 22 20 21 23 23 22 20 19 20 20 21 22 24 27 29 29 30 31 32 31 29 26 25 24 17 11 10 7 5 5 5 6 6 7 8 9 10 11 11 11 10 10 10 10 11 12 13 13 13 12 10 7 6 5 6 6 6 7 7 8 8 8 8 8 8 8 8 8 8 9 9 9 10 10 11 11 12 12 13 13 14 15 16 17
25 24 23 24 25 24 22 21 20 21 21 22 23 25 27 28 28 30 30 30 29 28 25 23 22 16 10 10 8 6 5 5 5 5 6 7 8 9 10 10 10 10 9 9 9 10 11 12 12 13 12 11 8 6 5 5 5 5 6 7 7 8 8 8 8 8 8 9 9 9 9 9 9 10 10 10 11 12 12 13 13 14 15 16 16
26 26 26 26 25 24 23 22 21 22 23 23 24 26 27 28 29 30 30 29 28 26 24 22 20 14 10 9 8 6 5 5 4 4 5 6 7 8 9 10 10 9 9 8 8 8 9 10 11 12 12 11 9 8 7 7 7 7 6 6 6 7 7 8 8 9 9 9 9 10 10 10 10 10 10 11 11 12 12 13 13 14 14 15 16
27 27 27 26 25 25 24 23 22 23 24 25 25 26 27 28 29 30 28 27 26 25 23 22 19 14 10 9 8 7 6 5 4 4 4 5 6 7 8 9 9 9 8 7 7 7 7 8 9 10 10 10 10 9 9 9 9 9 9 8 7 7 7 7 8 9 9 10 10 11 11 11 11 11 11 11 12 12 13 13 14 14 15 16 16
28 28 28 26 26 26 25 24 24 24 25 26 26 26 28 30 30 29 27 25 25 25 23 21 18 13 10 10 9 7 6 5 4 4 4 5 5 6 7 8 9 9 8 7 6 6 6 7 8 8 9 9 10 10 10 10 10 11 11 10 10 9 8 8 8 9 10 11 11 11 11 11 11 12 12 12 12 13 13 14 15 15 15 16 17
29 29 27 27 27 27 27 26 25 26 26 27 27 27 29 31 30 28 25 23 23 24 22 20 17 13 10 10 9 8 7 5 5 4 5 5 5 5 6 7 8 8 8 7 6 5 6 7 7 7 7 7 9 10 11 11 11 12 12 12 12 11 11 10 10 10 10 10 11 11 11 12 12 13 13 13 13 14 14 15 16 16 16 16 17
30 28 27 28 29 28 28 27 27 27 27 27 27 29 31 32 29 26 24 22 21 22 21 19 17 13 11 10 10 8 7 6 6 6 6 5 5 5 5 6 7 8 8 7 6 5 5 6 6 6 6 6 7 9 11 12 13 13 13 13 13 13 13 12 12 11 11 10 11 11 11 12 13 13 14 14 15 15 15 16 17 18 17 17 17
30 29 29 29 30 29 29 29 28 28 28 28 28 29 31 31 28 24 23 21 20 21 20 19 17 14 11 11 10 9 8 7 7 7 7 7 6 5 5 6 7 8 8 7 6 5 5 5 6 6 5 5 6 7 9 11 13 14 14 14 14 14 14 13 13 12 12 11 11 11 12 12 12 13 14 15 15 16 16 17 18 19 18 18 18
31 31 30 31 31 31 30 30 29 29 29 29 30 30 32 31 27 23 22 20 19 20 20 19 17 14 12 11 10 9 9 8 8 9 9 9 8 7 6 7 7 8 9 8 7 6 5 5 6 6 5 5 6 7 8 9 11 13 14 14 14 14 14 13 13 12 12 12 12 12 12 12 12 13 14 15 15 16 17 18 18 19 19 18 18
32 31 31 32 32 31 31 30 29 29 30 31 31 32 33 32 28 24 21 20 19 19 19 19 18 15 12 12 10 10 10 9 10 11 10 10 10 9 8 8 8 9 10 9 7 6 6 6 6 5 5 5 6 7 8 8 9 11 12 12 12 13 13 13 13 12 12 12 12 12 12 12 13 13 14 15 16 16 17 18 18 18 19 19 18
32 31 32 33 32 31 31 30 30 30 31 32 33 34 34 33 31 26 22 20 18 19 19 19 18 15 13 12 11 11 11 11 12 12 12 12 12 11 10 10 10 10 11 10 9 7 6 6 5 5 5 5 6 7 7 8 9 9 10 10 11 12 12 12 12 12 12 11 11 12 12 13 13 14 14 15 16 16 17 17 17 17 18 19 19
32 32 33 33 32 31 31 31 31 32 33 34 35 35 33 32 31 27 22 20 20 21 20 19 19 16 14 12 12 12 12 12 13 13 13 13 13 12 12 12 11 12 12 11 10 8 7 6 5 5 5 6 6 6 7 8 8 9 9 10 11 11 12 12 12 11 11 11 11 12 12 13 14 14 15 15 16 16 17 17 17 17 18 18 18
32 32 32 32 32 31 31 32 32 33 35 36 36 33 30 30 30 26 21 20 22 22 21 20 19 17 14 13 13 14 14 13 14 13 13 13 14 14 14 14 13 13 12 11 11 9 8 7 6 6 7 7 7 7 7 8 9 10 10 10 11 11 11 11 11 11 11 11 12 13 13 14 14 14 15 15 15 16 17 17 17 17 17 18 18
31 32 32 32 32 32 33 33 34 35 36 36 33 29 27 29 27 23 21 21 22 23 21 20 20 17 15 14 14 15 15 14 14 13 13 13 14 15 16 16 15 14 13 11 11 10 9 8 8 8 8 8 8 8 9 10 10 10 10 11 11 10 10 10 10 10 11 12 12 12 13 13 13 14 15 15 16 17 17 18 18 18 18 18 19
32 32 33 32 33 34 35 35 35 36 35 32 29 26 27 27 24 20 20 21 22 22 21 20 20 18 16 15 16 16 16 15 14 13 13 13 14 16 17 18 17 16 14 12 11 11 10 10 10 10 10 10 9 9 10 11 12 11 11 11 11 11 10 10 10 10 10 11 11 11 12 13 14 15 15 16 17 18 18 19 19 19 19 19 19
33 33 34 34 35 36 35 35 34 32 30 29 27 25 25 24 22 21 21 22 22 21 20 20 21 19 16 16 16 17 17 15 14 13 13 14 14 16 18 19 18 17 15 13 12 12 12 12 12 12 11 11 11 11 11 12 12 12 12 12 12 11 10 10 10 10 10 10 11 12 13 14 15 16 18 19 19 20 20 20 20 20 20 20 20
34 35 35 35 35 35 33 31 30 29 28 29 28 26 24 22 21 22 22 22 21 21 21 21 22 20 18 17 17 18 17 16 15 13 14 14 15 16 17 19 19 17 16 15 14 14 13 13 13 13 13 13 12 12 12 13 13 12 12 13 12 12 11 11 11 11 12 12 12 13 15 16 17 19 20 22 22 23 23 23 23 22 22 22 22
34 34 34 33 33 32 30 29 28 29 30 31 30 28 25 23 22 22 22 22 22 23 22 22 22 21 20 18 18 18 19 18 16 14 14 15 16 16 17 18 18 18 17 17 16 15 15 14 13 13 14 14 13 13 13 13 13 12 12 13 13 12 12 12 12 13 13 14 14 15 16 17 19 20 22 24 25 25 25 25 25 24 24 24 24
33 33 32 32 31 30 29 28 29 30 32 33 32 29 27 25 23 23 24 24 24 24 23 23 22 21 20 19 19 19 20 19 17 15 16 17 17 17 16 16 17 17 18 18 18 18 16 15 14 14 14 14 14 14 15 14 13 12 12 13 13 13 13 13 14 14 15 16 16 17 18 19 20 22 24 25 27 27 27 27 27 26 26 26 26
31 31 32 31 30 29 29 29 30 32 33 33 31 29 29 27 25 25 26 26 26 25 24 24 22 21 21 20 19 20 21 20 18 17 17 17 17 17 16 16 16 16 18 19 20 20 18 17 16 15 15 14 15 15 15 15 13 12 12 13 13 14 14 15 15 16 17 18 18 19 20 21 21 23 24 26 27 28 28 28 29 28 28 28 28
29 30 30 29 28 28 28 28 30 31 32 32 31 31 31 30 27 26 27 27 26 25 24 23 22 22 21 20 20 21 22 21 18 18 18 17 17 17 17 16 16 17 18 19 20 20 19 19 17 16 15 14 14 15 15 14 13 12 13 13 14 14 15 16 17 17 18 19 20 21 21 22 23 24 25 26 27 28 28 29 29 30 30 30 30
26 26 26 26 26 25 25 25 26 28 30 31 32 33 33 32 29 27 28 27 26 24 23 23 23 24 23 22 22 22 23 21 20 19 18 17 17 17 17 17 17 18 19 20 21 21 20 20 19 18 16 14 14 14 14 13 12 12 13 13 14 15 16 17 18 19 19 20 21 22 23 24 24 26 27 27 27 28 29 29 30 30 31 31 31
22 23 23 23 23 22 21 22 23 25 27 30 32 33 34 33 31 29 29 28 26 25 24 23 24 26 25 23 23 23 23 22 21 19 18 17 17 17 17 17 18 19 20 21 21 21 20 19 18 17 16 13 13 13 13 13 13 13 13 14 15 16 17 18 19 20 21 22 23 23 24 25 26 27 28 28 28 28 29 30 30 31 31 32 32
20 21 21 21 20 20 20 21 22 23 25 28 30 32 32 32 30 29 29 29 27 26 25 23 26 28 27 25 24 24 24 23 21 20 19 18 17 17 17 18 19 20 21 21 21 21 20 17 16 15 14 13 12 13 13 13 13 13 14 15 15 17 18 20 21 21 22 23 24 25 25 26 27 28 28 28 29 29 29 30 31 31 32 32 33
21 20 20 20 20 21 21 22 23 24 25 27 29 30 30 29 28 28 29 29 28 27 26 25 28 31 28 26 25 25 25 23 22 21 19 18 17 17 17 18 19 20 21 21 21 20 18 16 14 13 12 12 13 13 13 13 13 13 14 15 16 18 19 21 22 23 24 24 25 26 26 27 28 28 28 28 29 29 30 30 31 32 33 33 34
20 19 20 20 22 22 23 24 25 25 26 27 29 29 28 27 26 27 27 28 27 27 26 27 30 31 29 27 26 26 25 24 22 21 20 18 17 18 18 19 19 20 21 21 21 20 18 15 14 13 12 13 14 14 13 13 13 13 14 15 17 18 20 22 23 24 25 25 26 27 27 27 27 27 27 28 28 29 30 31 32 33 33 34 34
20 20 21 22 23 24 25 26 26 27 28 28 29 29 28 26 26 26 26 26 25 26 26 27 30 31 29 27 26 27 26 24 22 21 20 18 18 19 19 20 20 20 21 21 21 20 18 16 15 14 13 13 14 15 14 13 13 13 14 15 17 19 21 22 24 25 26 27 28 28 28 28 27 28 28 28 29 30 32 32 33 33 33 34 35
20 21 22 24 25 25 26 27 28 29 30 30 30 29 26 25 25 25 25 24 23 24 26 27 30 30 29 28 27 27 26 24 22 21 20 19 19 19 19 20 21 21 21 21 21 21 19 17 15 14 14 14 14 15 15 15 14 14 15 17 19 20 22 24 25 27 28 28 28 28 28 29 29 30 30 30 31 32 33 34 34 34 35 35 36
21 22 23 25 25 25 27 28 30 31 32 32 30 27 25 24 25 24 23 22 22 23 25 27 29 29 29 28 27 27 26 25 23 21 20 19 19 19 19 21 21 22 22 22 22 21 19 17 15 15 14 14 14 14 14 15 15 16 17 19 20 22 23 25 26 27 28 28 28 28 29 30 31 31 32 33 34 35 35 35 35 36 37 38 38
21 23 25 25 26 27 28 30 32 33 32 30 27 26 26 25 24 23 22 22 22 22 24 27 29 29 29 28 28 28 27 25 23 21 20 19 18 18 20 21 22 22 22 22 22 21 19 16 15 15 14 13 13 13 14 14 16 17 19 20 22 23 25 26 27 27 28 28 29 30 31 32 32 33 34 36 37 37 37 37 37 38 38 39 39
23 25 26 26 27 28 30 33 34 33 30 27 26 25 25 25 24 23 23 23 23 24 25 27 29 30 30 29 29 28 27 24 23 21 20 19 19 19 21 22 22 22 22 22 21 20 18 16 15 14 12 12 12 13 13 14 16 18 20 21 23 25 27 28 28 28 29 30 31 32 33 34 35 36 37 38 39 39 39 39 39 39 39 40 40
25 27 27 28 29 31 33 35 35 31 27 26 24 23 24 25 25 24 24 25 25 24 24 26 29 30 30 29 29 27 25 23 22 22 20 20 20 21 22 23 23 23 22 21 20 18 17 15 13 12 11 11 12 12 13 14 16 18 20 22 24 26 28 29 30 30 31 32 33 34 35 36 37 38 39 39 40 40 41 41 40 40 40 40 40
28 29 29 30 32 34 34 35 34 27 25 24 22 22 24 24 23 24 24 24 24 24 24 26 29 30 31 29 28 26 24 23 22 22 21 21 22 23 23 23 23 23 22 21 19 17 15 13 12 11 11 11 11 12 14 15 17 18 20 22 24 26 27 29 31 32 33 33 34 35 36 37 38 39 40 40 40 40 40 40 39 39 39 39 39
29 30 30 32 35 35 33 32 29 24 25 25 23 24 25 23 21 22 23 23 23 25 26 27 29 32 31 27 25 25 24 23 23 23 23 23 24 24 23 23 23 23 22 20 19 16 14 12 11 11 11 11 12 13 14 16 18 19 21 23 24 25 27 29 31 32 33 34 35 36 37 38 38 39 40 40 40 39 39 39 39 40 40 40 40
29 30 32 34 36 33 29 28 26 25 26 26 27 26 24 24 22 22 23 23 24 25 27 27 28 31 31 26 24 24 23 23 23 24 23 23 24 23 22 22 23 23 22 21 19 16 13 11 11 10 10 11 12 14 15 17 19 21 22 23 24 26 28 29 30 32 33 35 36 37 38 38 39 39 39 39 39 39 40 41 41 42 42 42 42
30 32 34 34 33 29 27 29 27 27 26 25 26 26 24 25 24 23 23 23 25 26 27 27 27 28 28 25 24 24 24 24 24 23 22 23 23 22 22 23 23 23 21 20 17 14 11 10 10 10 10 11 13 14 16 18 20 21 22 24 25 27 28 30 31 32 34 35 36 37 38 38 38 38 38 38 39 40 40 41 41 41 42 42 42
32 34 34 32 30 28 29 31 28 25 25 24 24 24 24 25 24 24 23 24 25 25 25 25 25 26 26 24 24 26 26 25 25 24 22 22 22 22 22 23 22 21 20 17 13 10 9 10 10 10 11 12 14 16 18 20 21 22 23 25 26 28 29 31 32 33 34 35 36 37 37 37 37 38 37 38 38 39 39 39 39 39 40 41 42
Wind_Direction
15 13 10 11 9 9 10 10 13 17 20 22 19 16 17 17 17 17 16 16 15 15 14 14 9 6 8 8 9 10 13 16 18 19 21 21 22 23 22 21 19 18 15 12 12 13 15 15 14 12 14 14 16 18 19 20 20 20 20 19 17 15 12 9 6 3 358 351 342 336 330 320 313 303 291 275 273 275 273 265 258 256 256 256 256
5 5 3 7 6 5 5 6 10 11 14 18 17 12 11 10 10 10 10 10 10 10 10 10 5 2 4 4 5 7 9 13 16 18 20 21 22 23 23 23 22 20 17 13 10 12 14 15 14 12 13 14 15 16 17 19 20 20 19 18 17 16 13 10 7 2 355 348 340 334 325 322 319 311 303 294 289 287 287 283 279 275 272 270 269
356 357 356 2 1 359 360 2 7 7 7 11 12 8 5 4 3 4 4 4 5 5 5 6 1 357 360 0 1 3 6 11 15 17 19 21 21 22 23 23 23 22 19 15 11 10 13 15 15 13 13 13 14 15 16 17 17 18 17 16 16 15 14 10 8 4 356 347 338 331 326 323 320 314 311 307 303 300 295 292 291 289 287 286 285
352 351 349 355 355 351 355 359 5 5 3 3 4 1 359 358 357 357 358 359 359 360 0 1 357 353 355 357 357 0 3 8 13 16 18 20 21 22 22 22 23 23 21 17 14 11 11 13 15 16 14 13 13 13 13 12 10 11 11 11 12 11 10 7 6 4 358 350 340 331 327 323 319 317 318 316 313 309 306 303 302 301 300 299 299
347 344 343 348 350 347 351 356 2 3 359 357 356 354 352 351 350 350 352 353 353 354 355 355 353 349 350 354 354 357 1 6 11 14 17 19 20 21 21 22 23 24 22 18 15 12 10 10 13 16 15 13 13 12 11 8 5 4 3 4 5 5 4 2 360 359 358 353 345 337 330 324 322 322 323 323 321 318 315 313 310 309 309 309 309
340 336 339 344 346 347 350 354 358 358 355 352 349 348 346 346 345 345 346 346 346 347 349 349 348 345 345 350 352 354 359 3 9 13 16 18 19 20 21 21 22 24 23 19 15 12 9 8 10 13 14 13 12 12 9 6 4 0 358 357 358 358 358 357 355 354 353 350 346 341 334 328 324 322 323 325 325 322 319 316 313 312 313 314 315
330 332 339 343 347 350 352 353 354 354 350 347 345 344 344 343 341 341 342 341 341 342 343 343 343 341 341 347 349 352 356 1 8 12 15 17 18 19 20 20 21 23 24 21 15 11 8 6 7 9 11 11 10 10 8 5 2 359 357 356 355 354 353 352 352 351 348 346 343 340 338 333 328 324 323 325 327 324 320 316 313 312 314 316 318
320 331 343 346 349 352 352 353 353 351 346 343 342 343 342 340 339 338 338 338 337 337 338 338 339 338 338 343 346 349 354 359 6 11 15 16 17 18 18 19 20 21 23 22 17 11 7 5 3 3 5 6 6 5 5 3 1 359 357 357 357 355 353 350 349 348 345 343 340 340 339 336 332 329 328 329 328 323 319 317 314 314 315 316 318
312 329 347 353 355 354 353 352 350 347 343 340 339 341 340 338 337 336 336 335 334 333 334 334 335 335 334 338 343 347 352 357 5 9 14 16 16 16 17 18 18 19 21 21 18 12 6 2 358 355 355 355 356 356 358 359 358 356 355 355 355 354 351 349 347 344 343 340 339 338 337 334 332 332 332 333 330 324 318 315 314 315 316 317 316
306 323 351 2 3 358 353 348 344 341 337 336 336 338 337 336 335 335 334 332 331 329 330 330 331 332 331 334 339 344 350 355 3 8 12 14 14 14 15 16 16 16 18 18 16 12 6 359 354 349 345 343 344 346 349 351 352 351 350 349 348 347 345 343 341 339 337 337 336 335 334 332 332 333 334 335 332 328 323 319 318 318 318 317 316
299 309 354 9 3 356 349 344 339 333 331 332 334 336 335 333 333 333 332 330 330 327 326 326 327 329 328 331 336 341 348 352 0 6 10 12 12 12 13 14 14 13 14 15 13 11 6 359 351 344 339 334 332 334 338 343 343 343 343 343 342 341 340 339 338 336 334 334 334 332 331 330 330 332 333 334 332 330 326 324 323 322 320 318 316
292 289 333 351 349 346 341 338 333 328 326 328 331 333 332 331 331 332 331 329 328 325 323 322 324 326 324 327 331 337 344 348 359 5 9 10 10 11 11 12 11 10 10 10 10 7 5 1 354 347 340 333 328 325 329 335 338 340 342 343 344 343 341 340 339 338 337 337 335 333 332 331 331 332 333 333 331 328 326 324 322 320 319 318 317
284 280 301 319 326 328 329 330 328 325 323 324 326 327 328 328 328 331 330 327 326 322 319 319 321 323 321 322 323 330 339 344 356 3 6 9 10 10 11 10 9 8 7 6 6 4 3 1 358 354 349 342 334 328 328 334 339 343 345 347 345 344 343 343 345 347 349 348 345 342 339 338 337 337 335 333 330 327 325 322 321 319 319 319 320
280 280 290 302 308 312 316 321 322 322 320 319 319 321 322 323 326 330 329 326 323 319 316 317 319 320 316 314 313 320 330 338 353 0 3 6 8 9 10 9 7 5 4 4 3 1 1 359 358 357 357 355 347 340 335 336 341 344 345 346 345 346 348 348 350 353 356 356 354 353 349 347 344 342 339 335 332 329 326 323 321 320 321 321 321
278 281 288 294 298 303 308 313 316 317 317 315 314 315 317 319 324 328 326 323 321 316 314 315 317 317 312 308 304 307 320 329 347 356 359 3 5 7 9 9 6 4 3 2 1 0 360 358 357 355 357 1 2 357 348 342 339 338 338 338 340 345 351 353 354 355 358 358 357 356 353 351 349 345 341 337 334 330 327 325 323 321 320 319 319
277 284 290 291 294 299 305 308 310 313 315 313 311 310 312 316 322 325 324 320 317 312 311 312 313 313 308 304 297 299 310 318 339 351 354 358 2 6 7 7 5 3 2 0 360 0 359 356 354 352 352 357 4 7 5 358 349 343 340 339 341 344 349 354 358 358 358 358 358 357 356 354 351 348 344 340 336 334 331 329 326 323 320 317 317
280 285 288 289 293 298 302 304 307 310 314 314 311 308 310 314 320 321 319 316 312 308 307 309 308 308 304 299 290 288 298 306 328 343 347 353 359 4 4 5 4 1 0 358 358 359 358 355 351 348 347 349 355 0 1 1 358 357 356 356 354 352 352 354 356 356 355 355 356 357 357 355 352 350 347 344 340 337 335 332 329 325 322 321 321
279 282 283 287 292 296 299 303 305 309 313 314 310 308 309 313 317 317 314 311 307 303 303 305 304 303 301 295 282 277 287 294 314 328 333 344 355 1 1 1 1 359 357 354 355 356 355 352 347 344 342 342 344 349 352 352 353 353 354 357 359 360 359 355 353 352 351 351 352 352 352 351 350 349 348 345 342 338 335 331 328 325 326 327 327
277 279 282 287 291 294 298 301 305 308 311 312 309 308 309 312 314 312 308 305 302 300 300 300 300 299 297 292 277 269 277 284 295 305 312 330 348 354 356 356 357 356 351 348 348 348 348 346 342 337 334 334 334 337 341 342 343 344 344 346 349 353 356 357 354 353 351 349 349 348 347 346 345 344 343 341 338 335 332 328 325 325 328 329 327
276 279 283 287 289 293 296 300 304 306 308 309 308 307 308 311 310 306 301 300 298 296 296 296 295 294 292 288 274 263 271 275 278 283 292 311 334 343 346 348 351 350 346 340 337 337 337 338 334 327 321 321 324 326 330 333 334 336 337 338 341 344 347 349 349 349 348 346 344 343 342 340 339 338 337 335 333 330 327 324 321 321 324 325 323
276 279 281 285 289 293 295 299 302 304 306 307 306 306 308 309 307 299 295 294 293 292 292 292 290 289 288 285 271 257 264 268 266 271 278 291 309 326 332 337 341 341 340 334 326 324 325 327 325 316 306 304 309 316 322 325 328 330 332 334 336 337 339 340 340 340 339 337 337 336 337 336 334 333 331 328 327 325 322 320 318 319 322 320 318
274 276 280 285 289 291 294 297 300 301 303 304 303 304 306 307 301 293 290 290 288 289 289 287 286 285 285 283 270 255 257 262 260 263 269 277 288 304 315 324 331 332 333 329 318 311 311 314 312 306 296 291 298 307 316 320 323 326 328 331 332 334 334 334 335 335 334 334 335 334 334 333 331 329 327 324 322 321 319 318 318 319 320 317 313
271 274 279 284 287 289 292 295 297 299 300 301 300 302 303 302 296 288 285 287 286 286 285 284 282 280 282 282 268 253 253 257 256 257 263 269 276 287 300 312 322 325 327 325 315 303 301 305 303 302 295 291 297 304 313 318 320 324 326 328 330 330 331 331 331 333 335 336 337 336 335 334 332 330 327 324 322 321 320 319 320 320 319 316 311
270 274 278 281 284 287 290 292 294 296 297 297 297 299 300 296 292 286 281 283 283 281 281 280 277 276 278 278 264 249 250 254 253 254 258 263 271 279 290 304 314 319 322 322 315 303 299 301 299 298 296 296 301 307 316 320 321 322 322 323 323 324 325 326 327 331 336 339 340 338 337 335 333 332 329 327 325 325 323 321 323 323 319 317 315
269 272 276 279 282 285 287 289 291 293 294 295 295 297 296 290 287 285 278 277 277 274 273 273 273 273 273 272 257 245 248 252 252 253 254 260 268 276 286 296 307 313 315 318 317 308 300 297 292 291 291 293 299 307 314 316 316 314 313 314 315 316 317 319 323 329 335 339 339 337 337 336 336 336 334 332 329 327 326 324 326 324 321 320 320
267 271 274 277 280 282 284 286 288 290 292 293 294 295 292 285 283 282 275 272 270 267 265 264 266 267 267 266 252 241 246 250 252 253 254 260 268 275 282 290 299 305 308 313 318 314 305 298 289 285 285 288 292 299 304 306 306 305 306 309 312 315 315 318 323 328 333 336 338 338 339 340 340 339 336 334 330 328 328 327 327 326 324 324 323
266 270 273 275 278 280 282 284 286 288 290 291 292 290 286 281 281 278 270 267 265 264 262 261 263 264 264 260 246 239 243 247 250 253 257 263 269 274 279 284 290 298 302 308 316 316 306 296 287 282 283 285 289 294 299 302 303 304 305 310 315 316 317 321 327 331 334 336 340 342 343 343 340 337 334 331 329 328 328 327 328 329 327 326 325
265 268 271 273 276 278 280 282 284 286 288 288 287 283 279 280 279 272 266 264 262 263 263 262 264 264 261 254 242 236 240 245 248 253 259 264 269 272 275 279 283 290 297 304 315 315 302 289 282 281 283 285 290 295 301 303 304 305 307 312 314 314 315 320 328 333 335 336 340 341 339 337 334 331 328 327 327 327 327 327 327 329 328 327 326
265 268 270 272 275 277 278 280 282 285 285 283 280 276 277 278 274 267 263 262 261 263 262 261 262 262 259 251 239 234 239 243 246 251 258 262 268 271 272 275 279 285 293 302 312 311 299 289 281 281 283 286 291 295 299 303 303 304 307 309 310 311 314 319 324 327 329 331 333 332 330 329 327 325 323 323 324 325 325 324 324 324 324 323 322
266 268 270 272 274 276 277 279 280 281 279 276 273 272 274 273 267 263 262 261 262 262 261 258 258 259 257 250 239 234 238 242 243 248 253 259 264 268 271 274 278 284 292 299 304 303 299 294 286 282 282 284 289 291 294 299 302 304 305 307 308 310 313 316 318 318 320 323 325 325 324 325 324 323 323 323 323 323 323 322 321 319 318 317 316
266 267 268 270 272 273 275 276 276 274 272 271 270 270 269 264 260 261 262 263 263 260 258 257 257 257 254 249 239 235 237 240 242 246 250 255 260 265 271 275 278 282 288 292 294 295 296 296 292 285 281 282 285 287 290 296 300 301 301 302 303 305 308 310 311 313 315 317 320 322 323 322 322 322 322 322 322 321 320 318 317 316 315 313 312
262 263 265 267 268 269 271 271 270 268 266 265 265 265 262 257 257 261 263 264 262 259 256 255 256 255 251 246 239 235 236 237 240 245 248 252 257 263 271 277 280 281 283 285 287 288 290 293 294 288 282 281 283 285 287 290 291 291 293 296 297 301 304 305 307 310 312 313 315 317 318 319 319 320 321 320 320 319 318 316 314 314 313 312 311
256 259 261 263 264 267 268 268 265 262 260 259 259 258 256 254 256 262 266 264 262 260 256 254 255 253 247 243 238 235 235 235 238 242 246 250 255 261 269 276 279 279 278 279 281 282 285 290 293 289 283 279 280 280 280 281 281 284 289 293 296 300 302 303 305 309 311 312 313 314 314 316 317 319 320 320 319 317 316 314 314 314 313 312 311
252 256 259 262 264 264 264 263 260 258 257 256 255 252 251 252 256 263 266 265 262 260 257 254 254 251 243 239 238 236 236 235 236 239 243 248 254 260 267 273 275 274 273 275 277 278 281 287 290 287 279 274 273 272 273 274 277 282 288 293 295 298 300 302 304 307 309 310 311 312 313 315 317 318 318 318 317 315 314 314 314 314 314 314 313
251 255 257 259 260 258 258 258 257 257 257 256 252 250 250 252 258 264 265 265 264 262 259 254 252 248 238 235 236 236 237 237 236 239 242 247 253 259 266 272 272 270 270 272 273 275 279 283 285 281 273 268 267 267 268 271 275 281 288 292 293 295 297 299 302 304 307 309 311 312 313 313 314 315 315 315 314 313 312 312 313 313 313 313 312
249 251 251 251 250 251 253 254 256 257 256 253 250 249 250 254 259 262 262 263 264 264 261 254 249 244 235 232 235 236 238 238 238 240 242 247 252 257 264 269 271 269 269 270 271 274 278 280 280 275 268 265 265 266 269 272 275 281 286 290 292 293 295 297 301 304 307 309 310 311 311 311 312 313 313 313 312 311 311 311 312 311 311 310 309
242 240 239 239 242 245 249 251 253 254 254 252 250 250 252 255 257 258 257 259 261 262 261 252 244 240 233 232 234 235 238 239 240 241 242 246 250 256 261 265 268 268 268 268 270 275 279 279 275 269 266 266 268 269 271 274 276 281 285 289 291 292 295 298 300 304 307 309 310 310 311 311 312 313 312 312 311 311 311 311 310 309 309 308 307
230 228 229 233 237 243 247 250 250 250 251 250 250 251 251 253 253 253 253 255 257 259 258 249 241 236 232 231 234 235 238 239 241 243 244 246 250 254 259 261 263 264 266 267 271 276 278 275 271 266 265 268 271 271 272 275 277 281 286 288 291 293 295 298 301 305 308 309 310 311 311 312 312 311 311 311 311 311 311 310 309 308 307 306 305
221 222 226 232 238 243 246 248 248 248 248 248 249 250 250 251 250 250 251 253 255 256 255 247 239 234 231 232 234 236 238 240 242 245 246 248 250 253 256 258 259 262 265 268 271 275 276 272 270 268 267 270 273 272 273 276 279 283 287 289 292 296 298 301 304 307 309 309 310 310 310 310 309 309 310 310 311 310 309 309 308 307 306 305 305
218 221 228 234 240 243 245 247 248 248 247 247 248 249 250 250 249 250 252 255 256 258 257 250 240 234 232 234 236 238 240 241 243 246 248 250 251 253 256 258 260 262 265 266 270 273 273 270 270 270 270 274 276 275 274 276 281 286 289 292 295 298 300 301 303 305 306 307 307 308 307 307 307 309 309 309 309 309 309 308 308 307 307 306 305
218 223 230 236 240 242 244 246 248 249 247 246 247 248 249 250 252 254 255 257 258 258 256 249 240 235 234 236 238 241 243 245 247 249 251 252 253 254 258 261 262 263 263 264 268 271 270 268 269 270 273 276 278 278 278 278 282 286 289 292 293 296 298 300 303 305 306 307 307 307 307 307 308 309 309 308 308 308 308 308 307 306 306 306 305
220 225 231 236 239 242 245 247 248 249 247 245 245 247 250 252 255 256 257 258 258 258 255 247 240 238 238 239 241 245 247 250 252 254 255 254 255 257 259 261 262 262 262 262 265 267 267 267 268 271 275 277 280 283 284 283 283 285 290 292 294 297 300 301 304 306 307 308 307 307 308 310 310 309 307 306 306 307 308 307 306 305 304 304 304
223 227 233 237 240 244 246 247 248 248 246 246 246 248 251 252 253 256 256 256 255 255 252 245 240 240 241 242 244 247 250 252 254 256 258 258 259 259 259 259 260 260 260 260 262 264 264 266 268 271 274 277 281 285 287 289 291 292 294 296 297 300 302 304 305 307 307 307 307 309 310 310 309 308 307 307 308 308 308 307 305 304 303 302 301
226 230 234 237 240 243 246 248 249 249 248 249 250 251 250 249 250 253 253 252 252 251 247 243 240 238 239 241 245 247 248 250 254 256 257 260 260 258 257 257 258 258 258 259 261 262 262 265 268 270 273 277 281 286 289 294 298 301 302 303 303 303 305 307 307 307 307 309 310 312 312 311 310 310 309 310 310 309 308 306 305 303 302 301 300
228 232 234 236 239 243 247 250 251 250 251 252 253 253 250 248 246 246 248 250 250 246 242 241 239 238 239 241 245 248 247 248 253 255 255 258 258 256 256 256 256 256 257 259 260 260 261 264 268 270 274 278 281 286 292 299 303 305 307 308 310 310 311 310 309 309 311 313 314 314 314 313 312 311 311 310 309 309 308 307 306 304 303 302 300
229 232 234 235 239 243 247 251 254 253 251 251 252 252 250 248 245 245 248 248 247 244 243 241 239 239 241 244 247 249 250 251 253 255 255 256 256 255 255 255 256 256 257 259 259 258 260 263 267 270 274 280 284 289 295 301 304 306 308 310 311 311 310 309 310 312 314 316 316 315 313 312 311 310 310 310 309 309 309 308 307 306 305 304 302
229 231 233 235 239 243 246 252 258 255 248 247 249 248 244 242 245 251 252 248 244 244 245 244 243 243 242 246 249 249 252 253 252 256 257 256 256 255 255 255 255 256 257 257 255 255 258 263 266 269 274 280 287 292 297 301 303 306 309 310 310 309 308 310 312 314 315 316 314 313 311 310 310 310 310 310 310 310 309 309 308 307 306 304 303
229 231 232 234 240 244 247 254 260 255 246 244 246 247 243 239 244 251 250 245 242 242 244 246 248 246 243 244 249 251 253 252 251 256 257 257 256 254 253 254 255 256 257 254 251 251 255 260 265 267 272 280 287 292 297 301 304 307 308 307 307 308 310 312 314 314 313 312 311 310 310 310 311 311 311 311 311 310 310 309 308 307 306 304 303
228 231 231 235 242 247 251 257 258 253 248 245 246 247 243 239 244 248 246 241 240 242 245 248 249 248 244 242 245 249 250 250 252 255 257 258 258 255 255 255 256 256 255 250 247 248 251 258 264 265 270 279 287 293 298 301 304 304 304 304 306 309 311 313 312 311 311 310 310 310 311 312 313 313 313 313 313 312 312 311 310 308 307 306 304
227 230 233 238 247 253 255 255 254 251 250 247 247 247 242 241 245 248 246 240 239 244 247 246 245 246 245 244 246 247 248 251 254 255 257 261 261 260 259 256 254 253 249 246 245 246 249 255 259 263 272 283 290 296 299 300 300 300 302 305 308 310 311 311 311 311 311 311 312 312 313 314 314 314 314 314 313 313 312 311 310 309 308 307 306
227 231 235 242 251 256 257 257 254 253 253 252 251 250 246 245 245 247 247 241 241 245 245 242 242 244 246 247 248 248 250 252 252 253 256 261 263 262 257 253 250 248 245 245 246 246 248 252 259 268 279 288 293 295 296 296 297 301 304 306 308 310 310 311 312 312 312 312 313 314 315 315 315 315 315 314 314 313 312 312 311 311 310 309 309
Height
5898 5898 5897 5896 5895 5895 5894 5894 5893 5893 5893 5893 5893 5893 5893 5892 5891 5891 5890 5890 5889 5889 5888 5887 5887 5887 5885 5883 5881 5880 5878 5876 5875 5874 5873 5872 5871 5870 5869 5868 5867 5867 5866 5865 5864 5863 5863 5862 5861 5861 5860 5860 5859 5858 5858 5857 5856 5856 5855 5855 5854 5854 5853 5853 5852 5852 5852 5851 5851 5851 5850 5850 5850 5849 5849 5849 5849 5848 5848 5848 5848 5848 5847 5847 5847
5897 5897 5896 5895 5895 5894 5894 5894 5893 5893 5893 5893 5893 5893 5893 5892 5891 5891 5891 5890 5889 5889 5888 5887 5887 5887 5886 5884 5882 5880 5878 5877 5875 5874 5873 5872 5871 5870 5870 5869 5868 5867 5866 5865 5865 5864 5863 5863 5862 5861 5861 5860 5860 5859 5858 5858 5857 5856 5856 5855 5855 5854 5854 5853 5852 5852 5852 5851 5851 5851 5851 5850 5850 5850 5849 5849 5849 5848 5848 5848 5848 5847 5847 5847 5847
5897 5897 5896 5895 5894 5894 5894 5894 5893 5893 5893 5893 5893 5892 5892 5892 5891 5891 5891 5890 5889 5889 5888 5887 5887 5887 5886 5885 5883 5881 5879 5877 5875 5874 5873 5872 5871 5870 5870 5869 5868 5867 5867 5866 5865 5865 5864 5863 5863 5862 5861 5861 5860 5859 5859 5858 5857 5856 5856 5855 5855 5854 5854 5853 5853 5852 5852 5852 5851 5851 5851 5850 5850 5850 5850 5849 5849 5849 5848 5848 5848 5847 5847 5847 5847
5896 5896 5895 5895 5894 5894 5894 5894 5893 5893 5893 5893 5893 5892 5892 5891 5891 5891 5891 5890 5889 5889 5888 5887 5887 5887 5886 5885 5883 5881 5879 5877 5876 5874 5873 5872 5871 5870 5870 5869 5868 5868 5867 5866 5866 5865 5864 5864 5863 5862 5862 5861 5860 5860 5859 5858 5857 5857 5856 5855 5855 5854 5853 5853 5853 5852 5852 5852 5851 5851 5851 5850 5850 5850 5850 5849 5849 5849 5848 5848 5848 5848 5847 5847 5847
5895 5895 5895 5894 5894 5894 5894 5894 5893 5893 5893 5893 5893 5892 5892 5891 5891 5891 5891 5890 5889 5889 5888 5887 5887 5887 5886 5885 5883 5881 5879 5878 5876 5874 5873 5872 5871 5870 5870 5869 5869 5868 5867 5866 5866 5865 5864 5864 5863 5862 5862 5861 5860 5860 5859 5858 5858 5857 5856 5855 5855 5854 5854 5853 5853 5852 5852 5851 5851 5851 5850 5850 5850 5850 5849 5849 5849 5849 5848 5848 5848 5848 5848 5847 5847
5895 5895 5895 5894 5894 5894 5894 5894 5893 5893 5893 5893 5892 5892 5892 5891 5891 5891 5890 5890 5889 5889 5888 5887 5887 5887 5886 5885 5883 5881 5880 5878 5876 5875 5873 5872 5871 5870 5870 5869 5868 5868 5867 5866 5866 5865 5864 5864 5863 5863 5862 5861 5861 5860 5859 5859 5858 5857 5856 5856 5855 5854 5854 5853 5853 5852 5852 5851 5851 5851 5850 5850 5850 5849 5849 5849 5849 5849 5848 5848 5848 5848 5848 5847 5847
5894 5894 5894 5894 5894 5894 5894 5894 5893 5894 5893 5893 5893 5892 5892 5891 5891 5890 5890 5889 5889 5888 5888 5887 5887 5886 5885 5884 5883 5881 5880 5878 5876 5875 5874 5872 5871 5870 5869 5869 5868 5867 5867 5866 5866 5865 5864 5864 5864 5863 5862 5862 5861 5860 5860 5859 5858 5857 5857 5856 5855 5855 5854 5854 5853 5853 5852 5852 5851 5851 5850 5850 5849 5849 5849 5848 5848 5848 5848 5848 5848 5847 5847 5847 5846
5894 5894 5894 5894 5894 5894 5894 5894 5893 5894 5893 5893 5892 5892 5891 5891 5890 5890 5889 5889 5888 5888 5887 5887 5886 5886 5885 5884 5882 5881 5879 5878 5877 5875 5874 5873 5871 5870 5869 5868 5868 5867 5867 5866 5866 5865 5865 5864 5864 5863 5862 5862 5861 5860 5860 5859 5858 5858 5857 5856 5856 5855 5854 5854 5853 5853 5852 5852 5851 5850 5850 5850 5849 5849 5848 5848 5847 5847 5847 5847 5847 5847 5846 5846 5845
5893 5893 5894 5894 5894 5894 5893 5893 5893 5893 5893 5892 5892 5892 5891 5891 5890 5889 5888 5888 5887 5887 5887 5886 5886 5885 5884 5883 5882 5881 5879 5878 5877 5875 5874 5873 5871 5870 5869 5868 5867 5867 5867 5866 5866 5865 5865 5864 5864 5863 5862 5862 5861 5860 5860 5859 5858 5858 5857 5856 5855 5855 5854 5854 5853 5852 5852 5851 5851 5850 5850 5849 5849 5848 5848 5847 5847 5847 5846 5846 5846 5846 5845 5845 5844
5893 5893 5894 5894 5894 5893 5893 5893 5892 5892 5892 5892 5891 5891 5891 5890 5889 5888 5887 5886 5886 5886 5886 5885 5885 5884 5883 5882 5881 5880 5879 5878 5877 5875 5874 5873 5872 5870 5869 5868 5867 5867 5866 5866 5866 5865 5865 5864 5864 5863 5862 5862 5861 5860 5860 5859 5859 5858 5857 5856 5855 5855 5854 5853 5853 5852 5852 5851 5850 5850 5849 5849 5848 5848 5848 5847 5847 5846 5846 5846 5845 5845 5844 5844 5843
5893 5893 5893 5893 5893 5892 5892 5892 5892 5892 5891 5891 5891 5890 5890 5889 5888 5887 5886 5885 5885 5885 5884 5884 5884 5883 5882 5881 5881 5880 5879 5878 5877 5875 5874 5873 5872 5870 5869 5868 5867 5867 5866 5866 5866 5865 5865 5864 5863 5863 5862 5862 5861 5861 5860 5859 5859 5858 5857 5856 5855 5855 5854 5853 5853 5852 5851 5851 5850 5849 5849 5848 5848 5847 5847 5847 5846 5846 5845 5845 5844 5844 5843 5843 5842
5892 5892 5892 5892 5892 5892 5891 5891 5891 5891 5891 5890 5890 5890 5889 5888 5887 5886 5885 5884 5884 5884 5883 5882 5882 5882 5881 5880 5880 5879 5878 5877 5876 5875 5874 5873 5872 5871 5869 5868 5867 5867 5866 5866 5865 5865 5864 5864 5863 5863 5862 5861 5861 5860 5860 5859 5858 5857 5856 5856 5855 5854 5853 5853 5852 5852 5851 5850 5849 5849 5848 5848 5847 5847 5847 5846 5846 5845 5844 5844 5843 5843 5842 5842 5841
5891 5892 5892 5892 5891 5891 5891 5891 5891 5890 5890 5890 5889 5889 5888 5888 5887 5886 5885 5883 5883 5883 5882 5881 5881 5881 5880 5879 5878 5878 5878 5877 5876 5875 5874 5873 5872 5871 5870 5868 5867 5866 5866 5865 5865 5864 5864 5863 5863 5862 5862 5861 5860 5860 5859 5859 5858 5857 5856 5855 5855 5854 5853 5852 5852 5851 5850 5850 5849 5848 5848 5848 5847 5847 5846 5846 5845 5844 5844 5843 5842 5842 5841 5840 5840
5890 5890 5891 5891 5891 5891 5891 5891 5890 5890 5889 5889 5888 5888 5887 5887 5886 5885 5884 5883 5882 5882 5881 5880 5880 5880 5879 5878 5877 5877 5877 5876 5876 5875 5874 5873 5872 5871 5870 5869 5867 5866 5865 5865 5864 5864 5863 5863 5862 5861 5861 5861 5860 5859 5859 5858 5857 5857 5856 5855 5854 5853 5853 5852 5852 5851 5850 5849 5849 5848 5848 5847 5847 5846 5846 5845 5844 5844 5843 5842 5841 5840 5840 5839 5838
5888 5889 5890 5890 5890 5890 5890 5890 5890 5889 5889 5888 5888 5887 5887 5886 5885 5885 5883 5882 5881 5880 5880 5879 5879 5879 5878 5877 5876 5876 5876 5876 5875 5875 5874 5873 5872 5871 5870 5869 5867 5866 5865 5865 5864 5864 5863 5862 5861 5861 5860 5861 5860 5859 5859 5858 5857 5856 5856 5855 5854 5853 5852 5852 5851 5851 5850 5849 5848 5848 5847 5847 5846 5845 5845 5844 5843 5843 5842 5841 5840 5839 5838 5837 5837
5887 5888 5889 5889 5889 5889 5890 5890 5889 5888 5888 5887 5887 5886 5886 5885 5884 5884 5882 5881 5880 5879 5879 5878 5878 5878 5878 5877 5876 5876 5875 5875 5874 5874 5874 5873 5872 5871 5870 5869 5867 5866 5865 5864 5864 5863 5863 5862 5861 5860 5860 5860 5860 5859 5859 5858 5857 5856 5855 5854 5853 5853 5852 5851 5851 5850 5849 5849 5848 5847 5846 5846 5845 5845 5844 5843 5842 5842 5841 5840 5839 5838 5837 5836 5836
5886 5887 5887 5887 5887 5888 5888 5889 5888 5887 5887 5886 5886 5885 5884 5884 5883 5882 5881 5880 5879 5878 5878 5877 5877 5877 5877 5876 5875 5875 5875 5874 5874 5873 5873 5872 5871 5870 5869 5868 5867 5866 5865 5864 5864 5863 5863 5862 5861 5860 5859 5859 5859 5859 5858 5858 5857 5856 5855 5854 5853 5852 5852 5851 5850 5849 5849 5848 5847 5847 5846 5845 5845 5844 5843 5843 5842 5841 5840 5839 5838 5837 5836 5836 5835
5884 5885 5885 5885 5886 5886 5887 5887 5887 5886 5886 5885 5884 5884 5883 5882 5882 5881 5880 5879 5878 5877 5877 5876 5876 5876 5876 5875 5874 5874 5874 5874 5873 5873 5872 5872 5871 5870 5869 5868 5867 5866 5865 5864 5863 5863 5862 5862 5861 5860 5859 5859 5858 5858 5858 5857 5856 5855 5854 5854 5853 5852 5851 5851 5850 5849 5848 5847 5847 5846 5845 5845 5844 5843 5843 5842 5841 5840 5839 5838 5837 5836 5836 5835 5834
5882 5882 5883 5884 5884 5885 5885 5886 5885 5885 5884 5884 5883 5882 5881 5881 5880 5879 5878 5878 5878 5876 5876 5875 5875 5875 5875 5874 5873 5873 5873 5873 5872 5872 5872 5871 5871 5870 5868 5867 5867 5866 5865 5864 5863 5862 5862 5862 5861 5861 5860 5859 5858 5857 5857 5857 5856 5855 5854 5853 5852 5852 5851 5851 5850 5849 5848 5847 5847 5846 5845 5844 5843 5843 5842 5841 5840 5839 5838 5837 5836 5835 5835 5834 5833
5880 5880 5881 5882 5882 5883 5883 5884 5883 5883 5883 5882 5881 5880 5879 5879 5878 5878 5877 5877 5876 5875 5875 5874 5874 5874 5874 5873 5872 5872 5872 5872 5872 5871 5871 5870 5870 5869 5868 5867 5866 5865 5864 5863 5862 5862 5861 5861 5861 5860 5860 5859 5858 5857 5857 5856 5856 5855 5854 5853 5852 5852 5851 5850 5850 5849 5848 5847 5846 5845 5844 5843 5843 5842 5841 5840 5839 5838 5837 5836 5835 5835 5835 5834 5833
5878 5878 5879 5880 5880 5881 5881 5882 5881 5881 5881 5880 5879 5878 5877 5877 5876 5876 5875 5875 5875 5874 5873 5873 5873 5873 5872 5872 5871 5871 5871 5871 5871 5870 5870 5870 5869 5868 5867 5866 5865 5864 5863 5862 5861 5861 5860 5860 5860 5859 5859 5859 5858 5857 5857 5856 5855 5855 5854 5853 5853 5852 5851 5850 5849 5848 5847 5846 5845 5845 5844 5843 5842 5841 5840 5839 5838 5837 5836 5836 5835 5834 5834 5833 5832
5875 5876 5877 5878 5879 5879 5879 5879 5879 5879 5879 5878 5877 5876 5876 5875 5874 5874 5874 5874 5873 5873 5872 5871 5871 5871 5871 5871 5870 5870 5870 5870 5870 5869 5869 5869 5868 5867 5867 5866 5865 5864 5863 5862 5860 5860 5859 5859 5859 5858 5858 5858 5858 5858 5857 5856 5856 5855 5854 5853 5852 5851 5850 5849 5849 5848 5847 5846 5845 5844 5843 5843 5841 5840 5839 5838 5837 5836 5836 5835 5834 5834 5833 5832 5831
5873 5874 5875 5876 5877 5877 5877 5877 5877 5877 5877 5876 5875 5875 5874 5873 5873 5872 5872 5872 5872 5871 5871 5870 5870 5870 5870 5869 5869 5869 5869 5869 5868 5868 5868 5868 5867 5867 5866 5865 5864 5863 5862 5861 5860 5859 5858 5858 5857 5857 5858 5858 5858 5858 5858 5857 5856 5855 5854 5853 5852 5851 5850 5849 5848 5847 5846 5845 5845 5844 5843 5842 5841 5840 5838 5837 5836 5835 5835 5834 5833 5832 5832 5831 5830
5871 5872 5873 5874 5874 5875 5875 5875 5875 5875 5874 5873 5873 5873 5872 5871 5871 5870 5870 5870 5870 5870 5869 5868 5868 5868 5868 5868 5868 5868 5868 5868 5867 5867 5866 5866 5866 5866 5865 5864 5864 5863 5861 5860 5859 5858 5857 5857 5856 5856 5857 5857 5857 5857 5857 5857 5856 5856 5855 5854 5852 5851 5850 5849 5848 5847 5846 5845 5845 5843 5842 5841 5840 5839 5838 5837 5836 5835 5834 5833 5832 5831 5830 5829 5828
5870 5871 5871 5872 5872 5873 5873 5873 5873 5872 5872 5871 5871 5871 5870 5869 5868 5868 5868 5868 5868 5867 5867 5867 5866 5867 5867 5866 5866 5866 5866 5866 5866 5865 5865 5865 5865 5865 5865 5864 5863 5862 5861 5860 5859 5857 5857 5856 5856 5856 5856 5856 5856 5856 5856 5856 5856 5855 5854 5853 5852 5851 5850 5849 5848 5847 5847 5846 5845 5843 5842 5841 5840 5839 5838 5836 5835 5834 5833 5832 5831 5830 5829 5828 5827
5868 5869 5869 5870 5870 5870 5870 5870 5870 5870 5869 5869 5869 5868 5867 5867 5866 5866 5866 5866 5866 5865 5865 5864 5864 5864 5865 5865 5864 5865 5865 5865 5864 5864 5864 5864 5864 5864 5864 5863 5862 5861 5860 5859 5858 5857 5856 5856 5855 5855 5855 5855 5855 5855 5855 5855 5854 5854 5853 5853 5852 5851 5850 5849 5848 5847 5846 5846 5845 5844 5843 5841 5840 5839 5837 5836 5835 5834 5832 5831 5830 5829 5828 5826 5825
5866 5866 5867 5867 5868 5868 5868 5868 5868 5867 5867 5866 5866 5866 5865 5864 5864 5863 5863 5863 5863 5863 5863 5862 5862 5862 5863 5863 5863 5863 5863 5863 5863 5863 5863 5863 5863 5863 5863 5862 5862 5861 5860 5859 5858 5857 5856 5855 5854 5854 5854 5854 5854 5854 5854 5853 5853 5853 5852 5852 5851 5850 5849 5848 5848 5847 5846 5845 5844 5844 5842 5841 5840 5838 5837 5836 5835 5833 5832 5830 5829 5828 5827 5825 5824
5864 5864 5864 5865 5865 5865 5865 5865 5865 5865 5865 5864 5864 5863 5863 5862 5861 5861 5861 5861 5861 5861 5861 5861 5861 5861 5861 5861 5861 5861 5861 5861 5861 5862 5861 5861 5861 5861 5861 5861 5861 5860 5859 5859 5858 5857 5855 5854 5853 5853 5853 5853 5853 5853 5852 5852 5852 5852 5851 5851 5850 5849 5848 5847 5846 5845 5845 5844 5844 5843 5842 5841 5840 5838 5837 5836 5834 5833 5831 5829 5828 5827 5825 5824 5823
5861 5861 5861 5862 5862 5862 5862 5862 5863 5862 5862 5861 5861 5861 5860 5860 5859 5858 5859 5859 5859 5859 5859 5859 5859 5859 5859 5859 5859 5859 5859 5860 5860 5860 5860 5860 5859 5859 5859 5859 5859 5859 5859 5858 5857 5856 5855 5854 5853 5852 5852 5852 5852 5852 5851 5851 5851 5850 5850 5850 5849 5848 5847 5846 5845 5844 5844 5843 5843 5842 5842 5841 5839 5838 5836 5835 5833 5832 5830 5829 5827 5825 5824 5823 5821
5858 5858 5858 5859 5859 5859 5859 5860 5860 5860 5859 5859 5859 5858 5858 5857 5857 5856 5856 5857 5857 5857 5857 5857 5857 5857 5857 5857 5857 5857 5858 5858 5858 5858 5858 5858 5858 5858 5858 5858 5859 5859 5859 5858 5857 5856 5855 5854 5853 5852 5851 5851 5851 5851 5850 5850 5849 5849 5849 5848 5847 5847 5846 5845 5844 5843 5843 5842 5842 5841 5840 5839 5838 5837 5835 5834 5833 5831 5829 5828 5826 5824 5823 5822 5821
5855 5855 5855 5856 5856 5856 5856 5857 5857 5857 5857 5856 5856 5856 5856 5855 5855 5854 5854 5855 5855 5855 5855 5855 5855 5855 5855 5855 5855 5855 5856 5856 5856 5857 5856 5856 5856 5856 5856 5857 5857 5858 5858 5857 5856 5855 5854 5853 5852 5851 5850 5850 5850 5849 5849 5849 5848 5848 5847 5847 5847 5846 5845 5844 5843 5842 5842 5841 5841 5840 5839 5838 5836 5835 5834 5832 5831 5830 5828 5826 5825 5823 5822 5820 5819
5851 5851 5852 5853 5853 5853 5854 5854 5854 5854 5854 5853 5853 5853 5853 5853 5853 5852 5852 5853 5853 5853 5852 5853 5853 5853 5853 5853 5853 5854 5854 5854 5855 5855 5855 5854 5854 5854 5855 5855 5856 5857 5857 5856 5855 5854 5854 5853 5852 5850 5850 5849 5849 5848 5848 5848 5848 5847 5847 5846 5846 5845 5844 5843 5842 5841 5840 5840 5839 5838 5837 5836 5835 5833 5832 5831 5830 5828 5827 5825 5823 5822 5820 5819 5817
5848 5849 5850 5850 5850 5851 5851 5851 5851 5851 5850 5850 5850 5850 5850 5850 5850 5850 5850 5850 5850 5850 5850 5850 5850 5851 5851 5851 5852 5852 5852 5852 5853 5853 5853 5853 5852 5853 5853 5854 5854 5855 5855 5854 5854 5853 5853 5852 5851 5850 5849 5848 5847 5847 5847 5846 5846 5846 5846 5845 5844 5843 5842 5842 5841 5840 5839 5838 5838 5837 5836 5835 5833 5832 5830 5829 5827 5826 5825 5823 5821 5820 5818 5817 5815
5846 5847 5847 5847 5848 5848 5848 5848 5848 5847 5847 5847 5847 5848 5848 5848 5848 5848 5848 5848 5847 5848 5848 5848 5848 5849 5849 5850 5850 5850 5850 5850 5850 5850 5851 5851 5851 5851 5852 5852 5853 5853 5853 5853 5852 5852 5851 5850 5849 5849 5848 5847 5847 5846 5845 5845 5845 5845 5844 5844 5843 5842 5841 5840 5840 5839 5838 5838 5837 5836 5834 5833 5831 5830 5828 5827 5825 5824 5822 5821 5819 5817 5816 5815 5813
5843 5844 5845 5845 5845 5845 5845 5845 5845 5844 5844 5844 5845 5845 5845 5845 5845 5845 5845 5845 5845 5845 5846 5846 5846 5847 5847 5848 5848 5848 5848 5848 5848 5848 5849 5849 5850 5850 5851 5851 5851 5851 5851 5851 5851 5850 5849 5849 5848 5847 5847 5846 5846 5845 5844 5844 5843 5843 5843 5842 5842 5841 5840 5839 5839 5838 5838 5837 5836 5834 5833 5831 5830 5828 5827 5826 5824 5822 5821 5819 5817 5816 5814 5812 5811
5841 5842 5842 5842 5842 5842 5842 5842 5842 5841 5841 5841 5842 5842 5842 5842 5843 5843 5843 5842 5843 5843 5843 5844 5845 5845 5845 5845 5846 5846 5846 5847 5846 5846 5846 5847 5848 5848 5849 5849 5849 5849 5849 5849 5848 5848 5847 5846 5846 5845 5845 5844 5844 5844 5843 5842 5842 5842 5841 5841 5840 5840 5839 5838 5837 5837 5836 5836 5834 5833 5831 5829 5828 5827 5825 5824 5822 5821 5819 5817 5815 5814 5812 5810 5809
5839 5839 5839 5840 5840 5840 5840 5840 5839 5839 5838 5838 5839 5839 5839 5840 5840 5840 5840 5840 5840 5841 5841 5842 5842 5843 5843 5843 5844 5844 5845 5845 5844 5844 5844 5845 5846 5847 5847 5847 5847 5847 5847 5847 5846 5846 5845 5844 5843 5843 5843 5843 5842 5842 5842 5841 5841 5841 5840 5839 5839 5838 5838 5837 5836 5836 5835 5834 5832 5831 5829 5828 5826 5825 5823 5822 5820 5819 5817 5815 5813 5812 5810 5808 5807
5836 5836 5837 5837 5838 5837 5837 5837 5836 5836 5836 5836 5836 5836 5836 5836 5837 5837 5837 5837 5838 5839 5839 5839 5840 5840 5840 5841 5841 5842 5842 5843 5843 5843 5843 5843 5844 5844 5845 5845 5845 5845 5845 5845 5845 5844 5843 5842 5841 5841 5841 5841 5841 5841 5840 5840 5839 5839 5838 5838 5837 5837 5836 5835 5835 5834 5833 5832 5830 5829 5827 5826 5825 5823 5821 5819 5818 5816 5814 5813 5811 5809 5808 5806 5804
5834 5834 5835 5835 5835 5835 5835 5834 5833 5833 5833 5833 5833 5833 5833 5833 5834 5834 5835 5835 5836 5836 5837 5837 5837 5837 5838 5839 5839 5840 5840 5841 5841 5841 5841 5841 5842 5842 5842 5842 5843 5843 5843 5843 5843 5842 5841 5840 5840 5840 5839 5839 5840 5840 5839 5838 5838 5837 5837 5836 5835 5835 5834 5833 5833 5832 5831 5830 5828 5827 5825 5824 5823 5821 5819 5817 5816 5814 5812 5810 5808 5806 5805 5803 5801
5832 5832 5832 5833 5832 5832 5832 5831 5831 5830 5830 5829 5829 5830 5830 5831 5831 5832 5833 5834 5834 5835 5835 5835 5834 5835 5836 5837 5838 5838 5838 5839 5839 5839 5839 5840 5840 5840 5840 5840 5841 5841 5841 5841 5840 5839 5839 5838 5838 5838 5838 5837 5838 5838 5838 5837 5836 5835 5835 5834 5834 5833 5832 5832 5831 5830 5829 5828 5826 5825 5823 5822 5820 5819 5817 5815 5814 5812 5810 5808 5806 5804 5802 5800 5798
5829 5830 5830 5830 5830 5829 5829 5828 5828 5827 5826 5826 5826 5827 5828 5829 5829 5830 5832 5832 5833 5833 5832 5832 5832 5833 5834 5835 5836 5836 5836 5837 5838 5838 5838 5838 5838 5838 5838 5838 5839 5839 5839 5839 5838 5838 5837 5837 5836 5836 5836 5836 5836 5836 5836 5835 5834 5834 5833 5833 5832 5831 5830 5830 5829 5828 5826 5825 5824 5822 5820 5819 5818 5816 5815 5813 5811 5809 5807 5805 5803 5801 5799 5797 5795
5827 5828 5828 5827 5827 5826 5826 5825 5824 5824 5823 5823 5823 5825 5827 5828 5828 5829 5830 5830 5830 5830 5830 5830 5830 5831 5832 5833 5834 5834 5835 5836 5836 5836 5836 5836 5836 5836 5836 5836 5837 5837 5837 5837 5837 5836 5836 5835 5835 5834 5834 5834 5834 5834 5833 5833 5832 5832 5831 5831 5830 5829 5828 5828 5827 5825 5824 5822 5821 5819 5817 5816 5814 5813 5811 5810 5808 5806 5804 5802 5800 5798 5796 5794 5792
5825 5826 5825 5825 5824 5824 5823 5821 5820 5820 5820 5820 5822 5825 5826 5827 5827 5827 5827 5828 5828 5828 5828 5828 5829 5829 5830 5831 5832 5832 5833 5834 5834 5834 5834 5834 5834 5834 5834 5834 5835 5835 5835 5835 5835 5834 5834 5833 5833 5833 5832 5832 5832 5832 5831 5830 5830 5829 5829 5828 5828 5827 5826 5825 5825 5823 5821 5820 5818 5816 5815 5813 5811 5810 5808 5806 5804 5803 5801 5799 5797 5795 5793 5791 5789
5823 5823 5823 5822 5821 5820 5819 5817 5816 5816 5818 5820 5822 5823 5824 5824 5825 5825 5825 5825 5825 5825 5826 5826 5826 5826 5827 5827 5828 5829 5830 5831 5832 5832 5832 5832 5832 5832 5832 5832 5833 5833 5833 5833 5833 5833 5832 5832 5831 5831 5831 5831 5831 5830 5829 5828 5828 5827 5826 5825 5825 5824 5824 5823 5822 5820 5818 5817 5815 5813 5811 5809 5808 5806 5805 5803 5801 5799 5797 5795 5794 5792 5790 5788 5785
5821 5821 5820 5819 5818 5816 5815 5812 5811 5814 5817 5819 5820 5821 5822 5822 5822 5823 5822 5823 5823 5823 5823 5823 5824 5824 5824 5825 5826 5827 5827 5828 5829 5829 5829 5830 5830 5830 5830 5830 5830 5830 5831 5831 5831 5831 5830 5830 5829 5829 5829 5829 5829 5828 5828 5827 5826 5825 5824 5823 5822 5821 5820 5819 5818 5817 5815 5813 5811 5809 5808 5806 5804 5802 5801 5799 5797 5795 5793 5791 5789 5788 5786 5783 5781
5818 5818 5817 5816 5814 5812 5810 5808 5808 5813 5817 5817 5818 5819 5820 5820 5820 5820 5820 5820 5821 5821 5821 5821 5821 5821 5822 5823 5824 5825 5825 5825 5826 5826 5827 5827 5827 5827 5827 5828 5828 5828 5828 5829 5829 5829 5828 5828 5828 5828 5828 5827 5827 5827 5826 5825 5824 5824 5823 5821 5820 5819 5817 5816 5814 5813 5811 5810 5808 5806 5805 5803 5801 5799 5797 5795 5793 5791 5789 5787 5785 5783 5781 5779 5776
5815 5814 5813 5812 5810 5806 5806 5805 5807 5812 5815 5815 5816 5816 5816 5817 5818 5819 5818 5819 5819 5819 5818 5818 5819 5819 5819 5821 5821 5822 5823 5823 5824 5824 5824 5824 5824 5825 5825 5826 5826 5826 5826 5827 5827 5827 5826 5826 5826 5826 5826 5826 5825 5825 5825 5824 5823 5822 5821 5820 5818 5817 5815 5813 5811 5809 5808 5807 5805 5804 5802 5800 5798 5796 5793 5791 5789 5787 5785 5783 5781 5779 5777 5774 5772
5812 5811 5810 5808 5804 5803 5804 5806 5808 5811 5812 5812 5813 5813 5813 5815 5816 5817 5817 5817 5817 5816 5816 5817 5817 5816 5817 5819 5820 5820 5821 5821 5821 5822 5822 5822 5822 5822 5823 5823 5823 5824 5824 5825 5825 5825 5824 5824 5825 5825 5825 5824 5824 5824 5823 5822 5821 5820 5819 5818 5817 5815 5813 5811 5809 5807 5806 5804 5803 5801 5799 5797 5795 5792 5790 5788 5786 5784 5781 5779 5777 5774 5772 5770 5767
5809 5808 5807 5804 5801 5803 5806 5806 5807 5808 5808 5808 5809 5810 5811 5813 5814 5814 5814 5814 5814 5814 5814 5815 5814 5813 5814 5817 5818 5818 5819 5818 5819 5819 5819 5820 5820 5820 5821 5821 5821 5822 5822 5822 5822 5822 5822 5823 5823 5823 5823 5823 5823 5822 5821 5820 5819 5818 5817 5816 5815 5813 5812 5810 5808 5806 5804 5802 5800 5798 5796 5794 5791 5789 5787 5784 5782 5779 5777 5774 5772 5769 5767 5764 5762
5805 5804 5802 5801 5802 5804 5805 5803 5804 5805 5804 5805 5806 5807 5809 5810 5811 5811 5811 5811 5811 5812 5812 5813 5812 5810 5811 5813 5815 5816 5816 5816 5816 5817 5817 5818 5818 5818 5818 5819 5819 5819 5820 5820 5820 5820 5821 5821 5822 5822 5822 5821 5821 5820 5819 5818 5818 5817 5815 5814 5813 5811 5809 5808 5806 5804 5802 5800 5797 5795 5793 5791 5788 5786 5784 5781 5778 5776 5773 5771 5768 5765 5763 5760 5757
5801 5800 5799 5801 5802 5804 5802 5799 5801 5803 5803 5804 5805 5805 5807 5808 5808 5808 5808 5808 5809 5809 5810 5811 5811 5809 5809 5811 5813 5814 5813 5813 5814 5815 5815 5816 5816 5816 5816 5816 5817 5817 5817 5817 5818 5818 5819 5820 5820 5820 5820 5819 5819 5818 5818 5817 5816 5815 5813 5812 5810 5809 5807 5805 5803 5801 5800 5798 5795 5793 5790 5788 5785 5782 5780 5778 5775 5772 5769 5767 5765 5762 5759 5756 5753